AirNav   Air Wisconsin pilot careers
 
 398 users online  

39R Flyin' B Airport
Houston, Texas, USA

GOING TO HOUSTON?


FAA INFORMATION EFFECTIVE 19 JULY 2018

Location

FAA Identifier: 39R
Lat/Long: 29-32-15.4000N / 095-25-25.1000W
29-32.256667N / 095-25.418333W
29.5376111 / -95.4236389
(estimated)
Elevation: 73 ft. / 22 m (estimated)
Variation: 06E (1985)
From city: 15 miles S of HOUSTON, TX
Time zone: UTC -5 (UTC -6 during Standard Time)
Zip code: 77583

Airport Operations

Airport use: Open to the public
Control tower: no
ARTCC: HOUSTON CENTER
FSS: MONTGOMERY COUNTY FLIGHT SERVICE STATION
NOTAMs facility: CXO (NOTAM-D service available)
Attendance: UNATNDD
Wind indicator: yes
Segmented circle: no

Airport Communications

CTAF: 122.9
WX AWOS-3 at AXH (3 nm SW): 123.625 (281-431-6572)
WX ASOS at LVJ (10 nm E): 118.525 (281-992-1853)
WX ASOS at HOU (10 nm NE): PHONE 713-847-1462
WX ASOS at SGR (13 nm NW): 118.125 (281-242-7605)

Nearby radio navigation aids

VOR radial/distance  VOR name  Freq  Var
HUBr222/10.4HOBBY VOR/DME117.1005E
IAHr184/25.5HUMBLE VORTAC116.6005E
VUHr293/33.2SCHOLES VOR/DME113.0006E
MHFr262/35.3TRINITY VOR/DME113.6007E

 
NDB name  Hdg/Dist  Freq  Var  ID
NIXIN197/29.432605EBVP -... ...- .--.
GALVESTON281/37.020608EGLS --. .-.. ...

Airport Services

Runway Information

Runway 17/35

Dimensions: 2100 x 75 ft. / 640 x 23 m
Surface: turf, in fair condition
RY SFC HAS ROUGH AREAS & UNEVEN WITH TIRE RUTS.
RUNWAY 17  RUNWAY 35
Latitude: 29-32.430290N29-32.083907N
Longitude: 095-25.424195W095-25.411467W
Elevation: 68.0 ft.73.0 ft.
Traffic pattern: leftleft
Runway heading: 172 magnetic, 178 true352 magnetic, 358 true
Obstructions: 30 ft. pline, 20 ft. from runway5 ft. hill, 90 ft. right of centerline

Airport Ownership and Management from official FAA records

Ownership: Privately-owned
Owner: SMITH PARK 21
4610 CURRY RD
MANVEL, TX 77578
Phone 713-443-1850
ARPT ADDRESS 1422 CO RD 59, ROSHARON, TX.
Manager: DAVID PARKER
4610 CURRY RD
HOUSTON, TX 77578
Phone 713-443-1850

Additional Remarks

BAYOU AT SOUTH END OF RWY.
GND DROPS OFF SHARPLY AT END OF RY 17 20 FT FM THLD.
FOR CD CTC HOUSTON APCH AT 281-443-5844 TO CNL IFR CALL 281-443-5888.

Instrument Procedures

There are no published instrument procedures at 39R.

Some nearby airports with instrument procedures:

KAXH - Houston Southwest Airport (3 nm SW)
KLVJ - Pearland Regional Airport (10 nm E)
KHOU - William P Hobby Airport (10 nm NE)
KSGR - Sugar Land Regional Airport (13 nm NW)
KEFD - Ellington Airport (14 nm E)
 
Loc | Ops | Rwys | IFR | FBO | Links
Com | Nav | Svcs | Stats | Notes


 
Area around 39R (Flyin' B Airport)
 
Road maps at: MapQuest Bing Google
 
Aerial photo
No photo
 
Sectional chart

 
Airport distance calculator
Flying to Flyin' B Airport? Find the distance to fly.

From to 39R

Sunrise and sunset
Times for 15-Aug-2018
 Local
(UTC-5)
 Zulu
(UTC)
Morning civil twilight06:2611:26
Sunrise06:5111:51
Sunset20:0201:02
Evening civil twilight20:2701:27

Current date and time
Zulu (UTC)  15-Aug-2018 09:37:05
Local (UTC-5)  15-Aug-2018 04:37:05
 
METAR
KAXH 
3nm SW 
150915Z AUTO 10SM CLR 24/23 A2998 RMK AO2 T02380233
KLVJ 
9nm E 
150853Z AUTO 00000KT 10SM CLR 27/25 A2998 RMK AO2 SLP152 T02670250 55002
KHOU 
9nm NE 
150853Z 18003KT 10SM SCT022 SCT250 27/26 A2997 RMK AO2 SLP153 T02670256 55000
KSGR 
13nm W 
150853Z AUTO 00000KT 10SM SCT025 27/24 A2997 RMK AO2 SLP150 T02670239 53001
KEFD 
14nm E 
150850Z 00000KT 10SM SCT020 SCT250 27/26 A3000
TAF
KHOU 
9nm NE 
150520Z 1506/1606 16007KT P6SM SCT250 FM151400 17008KT P6SM SCT025 FM152100 14008KT P6SM VCTS SCT050CB FM160000 15005KT P6SM BKN250
KSGR 
13nm W 
150520Z 1506/1606 16007KT P6SM SCT250 FM151400 17007KT P6SM BKN025 FM151600 18009KT P6SM SCT035 FM152200 16009KT P6SM VCTS SCT050CB FM160000 15006KT P6SM BKN250
KEFD 
14nm E 
150400Z 1504/1610 15006KT 9999 FEW040 SCT250 QNH2995INS BECMG 1514/1515 16012KT 9999 SCT030 SCT150 QNH2998INS BECMG 1523/1524 16009KT 9999 SCT050 QNH2999INS BECMG 1604/1605 18006KT 9999 SCT010 QNH3001INS TX34/1520Z TN25/1512Z
NOTAMs
Click for the latest NOTAMs
NOTAMs are issued by the DoD/FAA and will open in a separate window not controlled by AirNav.

 

 
 

Would you like to see your business listed on this page?

 If your business provides an interesting product or service to pilots, flight crews, aircraft, or users of the Flyin' B Airport, you should consider listing it here.  To start the listing process, click on the button below
 
Add a business
 

Other Pages about Flyin' B Airport

Update a link
 
Copyright © AirNav, LLC. All rights reserved. Privacy Policy  Contact